Location: Mouss�
(47.9236°N, 1.2701°W)
Time: 09:14:02
(UTC+00:00)

Cosmos 2219 Rocket - Visible Passes

Search period start: 16 June 2021 00:00
Search period end: 26 June 2021 00:00
Orbit: 827 x 847 km, 71.0° (Epoch: 15 June)

Date Brightness Start Highest point End Pass type
(mag) Time Alt. Az. Time Alt. Az. Time Alt. Az.
16 Jun 4.7 01:10:01 10° WNW 01:13:19 15° NW 01:16:37 10° N visible
16 Jun 3.4 21:24:38 13° SE 21:28:14 23° ESE 21:32:34 10° NE visible
16 Jun 2.6 23:06:18 11° SW 23:11:41 64° WNW 23:17:22 10° NNE visible
17 Jun 4.7 00:53:21 10° WNW 00:56:49 16° NW 01:00:18 10° N visible
17 Jun 3.5 21:07:44 10° SSE 21:11:52 21° E 21:16:02 10° NE visible
17 Jun 2.5 22:49:36 10° SW 22:55:16 69° WNW 23:00:58 10° NNE visible
18 Jun 4.7 00:36:42 10° WNW 00:40:20 17° NW 00:43:58 10° N visible
18 Jun 3.6 20:51:34 10° SE 20:55:31 20° E 20:59:29 10° NE visible
18 Jun 2.4 22:33:11 10° SW 22:38:51 73° WNW 22:44:33 10° NNE visible
19 Jun 4.7 00:20:04 10° W 00:23:50 18° NW 00:27:38 10° N visible
19 Jun 2.3 22:16:45 10° SSW 22:22:26 78° WNW 22:28:09 10° NNE visible
20 Jun 4.7 00:03:26 10° W 00:07:21 19° NW 00:11:17 10° N visible
20 Jun 2.3 22:00:20 10° SSW 22:06:01 83° WNW 22:11:45 10° NNE visible
20 Jun 4.7 23:46:49 10° W 23:50:52 20° NW 23:54:56 10° N visible
21 Jun 2.2 21:43:55 10° SSW 21:49:36 89° WNW 21:55:20 10° NNE visible
21 Jun 4.6 23:30:12 10° W 23:34:23 21° NW 23:38:35 10° N visible
22 Jun 2.2 21:27:31 10° SSW 21:33:12 86° ESE 21:38:55 10° NNE visible
22 Jun 4.6 23:13:37 10° W 23:17:55 22° NW 23:22:14 10° N visible
23 Jun 2.2 21:11:07 10° SSW 21:16:48 81° ESE 21:22:30 10° NNE visible
23 Jun 4.6 22:57:02 10° W 23:01:26 23° NW 23:05:53 10° N visible
24 Jun 2.2 20:54:44 10° SSW 21:00:24 76° ESE 21:06:05 10° NNE visible
24 Jun 4.6 22:40:26 10° W 22:44:59 24° NW 22:49:30 10° N visible
25 Jun 2.2 20:38:21 10° SSW 20:43:59 71° ESE 20:49:39 10° NNE visible
25 Jun 4.5 22:23:52 10° W 22:28:30 25° NW 22:33:09 10° N visible
